| time (UTC) | temp F | wind direction | speed MPH | gust MPH | rain 1hr in | rain 24hr in | rain mn in | humidity % | barometer mb |
| 20260902124510 | 52 | 252 | 3.0 | 5.0 | 0.00 | 0.00 | 0.00 | 74 | 1010.6 |
| 20260902123008 | 52 | 283 | 3.0 | 6.0 | 0.00 | 0.00 | 0.00 | 73 | 1010.5 |
| 20260902121504 | 53 | 267 | 3.0 | 6.0 | 0.00 | 0.00 | 0.00 | 72 | 1010.6 |
| 20260902114559 | 52 | 273 | 1.0 | 3.0 | 0.00 | 0.00 | 0.00 | 73 | 1010.7 |
| 20260902113059 | 51 | 300 | 2.0 | 3.0 | 0.00 | 0.00 | 0.00 | 75 | 1010.7 |
| 20260902111602 | 53 | 264 | 2.0 | 5.0 | 0.00 | 0.00 | 0.00 | 73 | 1010.6 |
| 20260902110104 | 52 | 270 | 2.0 | 4.0 | 0.00 | 0.00 | 0.00 | 74 | 1010.9 |
| 20260902104614 | 53 | 314 | 1.0 | 6.0 | 0.00 | 0.00 | 0.00 | 75 | 1011.0 |
| 20260902103110 | 52 | 268 | 1.0 | 3.0 | 0.00 | 0.00 | 0.00 | 77 | 1011.3 |
| 20260902101605 | 52 | 281 | 0.0 | 1.0 | 0.00 | 0.00 | 0.00 | 78 | 1011.6 |
| 20260902100054 | 52 | 179 | 0.0 | 2.0 | 0.00 | 0.00 | 0.00 | 78 | 1011.2 |
| 20260902094552 | 52 | 271 | 3.0 | 6.0 | 0.00 | 0.00 | 0.00 | 79 | 1011.0 |
| 20260902093051 | 51 | 277 | 2.0 | 5.0 | 0.00 | 0.00 | 0.00 | 80 | 1011.0 |
| 20260902091550 | 51 | 287 | 1.0 | 2.0 | 0.00 | 0.00 | 0.00 | 79 | 1011.0 |
| 20260902090051 | 52 | 283 | 0.0 | 2.0 | 0.00 | 0.00 | 0.00 | 78 | 1010.8 |
| 20260902084555 | 52 | 259 | 2.0 | 5.0 | 0.00 | 0.00 | 0.00 | 78 | 1010.5 |
| 20260902083053 | 51 | 278 | 0.0 | 2.0 | 0.00 | 0.00 | 0.00 | 79 | 1010.6 |
| 20260902081547 | 51 | 274 | 0.0 | 0.0 | 0.00 | 0.00 | 0.00 | 76 | 1010.7 |
| 20260902080046 | 52 | 274 | 0.0 | 1.0 | 0.00 | 0.00 | 0.00 | 74 | 1010.5 |
| 20260902074544 | 53 | 291 | 0.0 | 1.0 | 0.00 | 0.00 | 0.00 | 73 | 1010.3 |
| 20260902073042 | 53 | 272 | 0.0 | 2.0 | 0.00 | 0.00 | 0.00 | 71 | 1010.3 |
| 20260902071541 | 54 | 290 | 1.0 | 3.0 | 0.00 | 0.00 | 0.00 | 69 | 1010.3 |
| 20260902070039 | 55 | 280 | 2.0 | 4.0 | 0.00 | 0.00 | 0.00 | 67 | 1010.3 |
| 20260902064539 | 56 | 269 | 1.0 | 3.0 | 0.00 | 0.00 | 0.00 | 64 | 1010.6 |
| 20260902063052 | 56 | 271 | 1.0 | 4.0 | 0.00 | 0.00 | 0.00 | 65 | 1010.6 |
| 20260902061558 | 57 | 254 | 3.0 | 6.0 | 0.00 | 0.00 | 0.00 | 63 | 1010.2 |
| 20260902060041 | 58 | 281 | 4.0 | 8.0 | 0.00 | 0.00 | 0.00 | 61 | 1010.0 |
| 20260902054536 | 59 | 257 | 5.0 | 9.0 | 0.00 | 0.00 | 0.00 | 59 | 1009.7 |
| 20260902053039 | 60 | 252 | 5.0 | 8.0 | 0.00 | 0.00 | 0.00 | 54 | 1009.7 |
| 20260902051552 | 62 | 264 | 3.0 | 7.0 | 0.00 | 0.00 | 0.00 | 51 | 1009.2 |
| 20260902050036 | 63 | 310 | 3.0 | 9.0 | 0.00 | 0.00 | 0.00 | 50 | 1009.0 |
| 20260902044559 | 63 | 269 | 7.0 | 11.0 | 0.00 | 0.00 | 0.00 | 51 | 1009.1 |
| 20260902043034 | 63 | 267 | 6.0 | 10.0 | 0.00 | 0.00 | 0.00 | 48 | 1009.0 |
| 20260902041534 | 63 | 274 | 3.0 | 8.0 | 0.00 | 0.00 | 0.00 | 48 | 1008.9 |
| 20260902040029 | 63 | 306 | 4.0 | 10.0 | 0.00 | 0.00 | 0.00 | 47 | 1009.0 |
| 20260902034528 | 63 | 267 | 3.0 | 8.0 | 0.00 | 0.00 | 0.00 | 49 | 1009.1 |
| 20260902033024 | 61 | 289 | 3.0 | 8.0 | 0.00 | 0.00 | 0.00 | 52 | 1009.2 |
| 20260902031538 | 60 | 285 | 5.0 | 8.0 | 0.00 | 0.00 | 0.00 | 51 | 1009.2 |
| 20260902030019 | 60 | 274 | 4.0 | 8.0 | 0.00 | 0.00 | 0.00 | 51 | 1009.1 |
| 20260902024518 | 60 | 283 | 4.0 | 8.0 | 0.00 | 0.00 | 0.00 | 52 | 1008.8 |
| 20260902023022 | 60 | 276 | 7.0 | 12.0 | 0.00 | 0.00 | 0.00 | 50 | 1008.8 |
| 20260902021514 | 60 | 285 | 8.0 | 12.0 | 0.00 | 0.00 | 0.00 | 50 | 1008.8 |
| 20260902020014 | 59 | 245 | 8.0 | 14.0 | 0.00 | 0.00 | 0.00 | 51 | 1008.8 |
| 20260902014515 | 59 | 264 | 6.0 | 12.0 | 0.00 | 0.00 | 0.00 | 52 | 1008.8 |
| 20260902013010 | 59 | 303 | 8.0 | 14.0 | 0.00 | 0.00 | 0.00 | 51 | 1008.9 |
| 20260902011516 | 59 | 254 | 5.0 | 10.0 | 0.00 | 0.00 | 0.00 | 53 | 1009.2 |
| 20260902010006 | 59 | 278 | 7.0 | 14.0 | 0.00 | 0.00 | 0.00 | 53 | 1009.4 |
| 20260902004506 | 60 | 275 | 9.0 | 16.0 | 0.00 | 0.00 | 0.00 | 52 | 1009.8 |
| 20260902003004 | 59 | 273 | 8.0 | 13.0 | 0.00 | 0.00 | 0.00 | 52 | 1009.9 |
| 20260902001506 | 59 | 248 | 6.0 | 14.0 | 0.00 | 0.00 | 0.00 | 54 | 1009.9 |
| 20260902000007 | 59 | 265 | 7.0 | 15.0 | 0.00 | 0.00 | 0.00 | 54 | 1010.0 |
| 20260901234502 | 59 | 286 | 8.0 | 15.0 | 0.00 | 0.00 | 0.00 | 54 | 1009.9 |
| 20260901233001 | 59 | 274 | 9.0 | 14.0 | 0.00 | 0.00 | 0.00 | 54 | 1009.8 |
| 20260901231614 | 59 | 274 | 7.0 | 16.0 | 0.00 | 0.00 | 0.00 | 53 | 1010.1 |
| 20260901230109 | 58 | 293 | 9.0 | 19.0 | 0.00 | 0.00 | 0.00 | 53 | 1010.1 |
| 20260901224559 | 58 | 258 | 8.0 | 15.0 | 0.00 | 0.00 | 0.00 | 54 | 1010.3 |
| 20260901223059 | 57 | 265 | 5.0 | 12.0 | 0.00 | 0.00 | 0.00 | 54 | 1010.2 |
| 20260901221610 | 57 | 349 | 8.0 | 17.0 | 0.00 | 0.00 | 0.00 | 53 | 1010.3 |
| 20260901220058 | 58 | 283 | 9.0 | 19.0 | 0.00 | 0.00 | 0.00 | 52 | 1010.4 |
| 20260901214556 | 58 | 254 | 9.0 | 17.0 | 0.00 | 0.00 | 0.00 | 51 | 1010.3 |
| 20260901213056 | 59 | 258 | 8.0 | 15.0 | 0.00 | 0.00 | 0.00 | 50 | 1010.6 |
| 20260901211552 | 59 | 285 | 5.0 | 11.0 | 0.00 | 0.00 | 0.00 | 51 | 1010.6 |
| 20260901210050 | 58 | 266 | 4.0 | 12.0 | 0.00 | 0.00 | 0.00 | 52 | 1010.8 |
| 20260901204546 | 57 | 275 | 2.0 | 7.0 | 0.00 | 0.00 | 0.00 | 55 | 1010.9 |
| 20260901203047 | 56 | 277 | 1.0 | 6.0 | 0.00 | 0.00 | 0.00 | 56 | 1010.8 |
| 20260901201545 | 55 | 298 | 5.0 | 9.0 | 0.00 | 0.00 | 0.00 | 59 | 1010.8 |
| 20260901200036 | 54 | 267 | 6.0 | 10.0 | 0.00 | 0.00 | 0.00 | 60 | 1010.3 |
| 20260901194535 | 54 | 249 | 8.0 | 13.0 | 0.00 | 0.00 | 0.00 | 59 | 1010.2 |
| 20260901193033 | 52 | 293 | 6.0 | 10.0 | 0.00 | 0.00 | 0.00 | 61 | 1010.4 |
| 20260901191541 | 51 | 289 | 6.0 | 12.0 | 0.00 | 0.00 | 0.00 | 62 | 1010.2 |
| 20260901190030 | 0 | 0.0 | 0.0 | 0.00 | 0.00 | 0.00 | 1010.1 | ||
| 20260901184526 | 0 | 0.0 | 0.0 | 0.00 | 0.00 | 0.00 | 1010.0 | ||
| 20260901183034 | 0 | 0.0 | 0.0 | 0.00 | 0.00 | 0.00 | 1010.3 | ||
| 20260901181518 | 0 | 0.0 | 0.0 | 0.00 | 0.00 | 0.00 | 1010.1 | ||
| 20260901180018 | 0 | 0.0 | 0.0 | 0.00 | 0.00 | 0.00 | 1009.9 | ||
| 20260901174509 | 0 | 0.0 | 0.0 | 0.00 | 0.00 | 0.00 | 1009.9 | ||
| 20260901173004 | 0 | 0.0 | 0.0 | 0.00 | 0.00 | 0.00 | 1010.2 | ||
| 20260901171603 | 0 | 0.0 | 0.0 | 0.00 | 0.00 | 0.00 | 1010.1 | ||
| 20260901170101 | 0 | 0.0 | 0.0 | 0.00 | 0.00 | 0.00 | 1010.1 | ||
| 20260901164552 | 0 | 0.0 | 0.0 | 0.00 | 0.00 | 0.00 | 1009.7 | ||
| 20260901163106 | 0 | 0.0 | 0.0 | 0.00 | 0.00 | 0.00 | 1009.5 | ||
| 20260901161550 | 51 | 275 | 6.0 | 14.0 | 0.00 | 0.00 | 0.00 | 64 | 1009.5 |
| 20260901160042 | 52 | 354 | 8.0 | 13.0 | 0.00 | 0.00 | 0.00 | 64 | 1009.4 |
| 20260901154542 | 52 | 289 | 6.0 | 13.0 | 0.00 | 0.00 | 0.00 | 64 | 1009.6 |
| 20260901153036 | 51 | 262 | 4.0 | 12.0 | 0.00 | 0.00 | 0.00 | 64 | 1009.7 |
| 20260901151539 | 51 | 265 | 4.0 | 9.0 | 0.00 | 0.00 | 0.00 | 65 | 1009.9 |
| 20260901150032 | 51 | 258 | 5.0 | 8.0 | 0.00 | 0.00 | 0.00 | 65 | 1010.0 |
| 20260901144529 | 51 | 266 | 2.0 | 11.0 | 0.00 | 0.00 | 0.00 | 65 | 1010.3 |
| 20260901143027 | 51 | 303 | 1.0 | 3.0 | 0.00 | 0.00 | 0.00 | 65 | 1010.3 |
| 20260901141533 | 51 | 293 | 2.0 | 9.0 | 0.00 | 0.00 | 0.00 | 64 | 1010.2 |
| 20260901140023 | 51 | 294 | 0.0 | 2.0 | 0.00 | 0.00 | 0.00 | 63 | 1010.5 |
| 20260901134520 | 51 | 264 | 2.0 | 4.0 | 0.00 | 0.00 | 0.00 | 63 | 1010.7 |
| 20260901133019 | 51 | 270 | 1.0 | 7.0 | 0.00 | 0.00 | 0.00 | 60 | 1010.4 |
| 20260901131516 | 51 | 262 | 5.0 | 10.0 | 0.00 | 0.00 | 0.00 | 60 | 1010.1 |
| 20260901130013 | 52 | 258 | 5.0 | 12.0 | 0.00 | 0.00 | 0.00 | 60 | 1010.1 |